Regional Weather Roundup
Issued by NWS

Home | Current Version | Previous Version | Graphics & Text | Print | Product List | Glossary Off
Versions: 1 2 3 4 5 6 7 8 9 10 11 12 13 14 15 16 17 18 19 20 21 22 23 24 25 26 27 28 29 30 31 32 33 34 35 36 37 38 39 40 41 42 43 44 45 46 47 48 49 50

955
ASUS43 KTOP 231359
RWRKS

WEATHER ROUNDUP FOR KANSAS
NATIONAL WEATHER SERVICE GOODLAND KS
900 AM CDT FRI JUN 23 2017

NOTE:  "FAIR" INDICATES FEW OR NO CLOUDS BELOW 12,000 FEET WITH NO
SIGNIFICANT WEATHER AND/OR OBSTRUCTIONS TO VISIBILITY.

KSZ001>006-013>018-027>032-041>047-231500-
NORTHWEST KANSAS

CITY           SKY/WX    TMP DP  RH WIND       PRES   REMARKS
GOODLAND       CLOUDY    57  50  77 N20G28    30.20S
HAYS           TSTM      59  54  83 N22       30.07R
HILL CITY      CLOUDY    62  55  77 N13       30.13R
RUSSELL        CLOUDY    66  52  60 N25G37    30.02R
$$

KSZ061>065-074>080-084>089-231500-
SOUTHWEST KANSAS

CITY           SKY/WX    TMP DP  RH WIND       PRES   REMARKS
DODGE CITY     SUNNY     68  58  70 NE22G32   30.03R
ELKHART          N/A     63  48  58 N18         N/A
GARDEN CITY    MOSUNNY   68  51  54 NE23G33   30.09R
GREAT BEND     SUNNY     71  58  63 N15       30.03R
LIBERAL        CLOUDY    68  60  75 NE22G30   30.03R
$$

KSZ066>073-081>083-090>101-231500-
SOUTHEAST KANSAS

CITY           SKY/WX    TMP DP  RH WIND       PRES   REMARKS
CHANUTE        CLOUDY    77  72  84 N15G24    29.79R
COFFEYVILLE    SUNNY     80  72  76 NW7       29.77R
HUTCHINSON     MOSUNNY   75  59  57 N14G32    29.92R
MEDICINE LODGE   N/A     75  63  66 N25G32    29.91R
NEWTON         PTSUNNY   75  59  57 N25G32    29.92R
PARSONS        SUNNY     80  72  76 NW8       29.79R
WICHITA INTL   CLOUDY    76  66  71 N14       29.89R
WICHITA JABRA  PTSUNNY   74  64  71 N17G29    29.89R
WICHITA MCCONL PTSUNNY   75  66  73 N23G36    29.86R
WINFIELD       CLOUDY    76  70  82 N16G24    29.85R
$$

KSZ007>012-019>026-033>040-048>060-102>105-231500-
NORTHEAST KANSAS

CITY           SKY/WX    TMP DP  RH WIND       PRES   REMARKS
CONCORDIA      CLOUDY    69  52  54 N16G22    29.96F
EMPORIA        CLOUDY    74  64  71 N12G21    29.87R
LAWRENCE       CLOUDY    75  66  73 N8        29.87R
MANHATTAN      PTSUNNY   73  58  59 N12       29.94R
OLATHE IND     CLOUDY    72  67  84 N16       29.86R
OLATHE EXE     CLOUDY    72  69  90 N12       29.84R
SALINA         SUNNY     77  56  48 NE16G22   29.94R
TOPEKA BILLARD MOSUNNY   75  66  73 N9        29.88R
TOPEKA FORBES  MOSUNNY   76  64  66 N8G20     29.88R
$$




USA.gov is the U.S. government's official web portal to all federal, state and local government web resources and services.